Date String (YYYY-MM-DD hh:mm:ss) UTC,Instrument flags,Ambient pressure (hPa),Sample flow (lpm),Bypass flow (lpm),Sample temperature (°C),Ambient temperature (°C),ASC tube jacket temperature (°C),LED temperature (°C),Box temperature (°C),Sample RH (%),Span deviation,Mass concentration (μg/m³),Mass concentration (μg/m³),Mass concentration (μg/m³)
DateTimeUTC,F1_M11,P_M11,Q1_M11,Q2_M11,T1_M11,T2_M11,T3_M11,T4_M11,T5_M11,U1_M11,ZSPAN_M11,X0_M11,X2_M11,X1_M11
2021-12-03 21:00:00,,0827.5,5.00,0.00,29.5,28.8,00.0,38.5,31.3,13.4,0000.0,0019.66,0005.89,0004.65
2021-12-03 21:01:00,,0827.5,4.99,0.00,29.5,28.9,00.0,38.5,31.3,13.4,0000.0,0020.11,0005.94,0004.68
2021-12-03 21:02:00,,0827.5,5.00,0.00,29.5,28.9,00.0,38.5,31.3,13.4,0000.0,0020.03,0005.99,0004.72
2021-12-03 21:03:00,,0827.5,5.00,0.00,29.5,28.9,00.0,38.5,31.3,13.4,0000.0,0020.77,0006.05,0004.78
2021-12-03 21:04:00,,0827.6,5.00,0.00,29.5,28.8,00.0,38.5,31.3,13.4,0000.0,0020.79,0006.10,0004.83
2021-12-03 21:05:00,,0827.5,5.00,0.00,29.5,28.8,00.0,38.5,31.3,13.4,0000.0,0020.94,0006.18,0004.88
2021-12-03 21:06:00,,0827.6,5.01,0.00,29.6,28.9,00.0,38.5,31.3,13.4,0000.0,0021.03,0006.28,0004.94
2021-12-03 21:07:00,,0827.5,4.99,0.00,29.6,28.9,00.0,38.5,31.3,13.3,0000.0,0020.52,0006.32,0004.97
2021-12-03 21:08:00,,0827.6,5.00,0.00,29.6,28.9,00.0,38.5,31.4,13.3,0000.0,0019.57,0006.36,0005.00
2021-12-03 21:09:00,,0827.5,5.00,0.00,29.6,29.0,00.0,38.5,31.4,13.3,0000.0,0018.68,0006.40,0005.02
2021-12-03 21:10:00,,0827.5,4.98,0.00,29.7,29.0,00.0,38.5,31.4,13.3,0000.0,0017.98,0006.44,0005.04
2021-12-03 21:11:00,,0827.5,5.00,0.00,29.7,29.1,00.0,38.6,31.5,13.2,0000.0,0018.00,0006.52,0005.08
2021-12-03 21:12:00,,0827.5,5.01,0.00,29.7,29.1,00.0,38.6,31.5,13.2,0000.0,0018.93,0006.60,0005.13
2021-12-03 21:13:00,,0827.5,4.99,0.00,29.7,29.1,00.0,38.6,31.5,13.2,0000.0,0019.53,0006.68,0005.18
2021-12-03 21:14:00,,0827.5,5.00,0.00,29.8,29.2,00.0,38.6,31.5,13.2,0000.0,0018.20,0006.73,0005.20
2021-12-03 21:15:00,,0827.5,5.01,0.00,29.8,29.2,00.0,38.6,31.6,13.2,0000.0,0018.46,0006.74,0005.21
2021-12-03 21:16:00,,0827.5,5.01,0.00,29.8,29.2,00.0,38.6,31.6,13.2,0000.0,0018.45,0006.72,0005.21
2021-12-03 21:17:00,,0827.5,5.00,0.00,29.8,29.2,00.0,38.7,31.6,13.1,0000.0,0018.04,0006.71,0005.20
2021-12-03 21:18:00,,0827.5,5.00,0.00,29.8,29.1,00.0,38.7,31.6,13.1,0000.0,0018.79,0006.74,0005.21
2021-12-03 21:19:00,,0827.5,4.99,0.00,29.8,29.1,00.0,38.7,31.5,13.1,0000.0,0020.53,0006.78,0005.23
2021-12-03 21:20:00,,0827.5,5.01,0.00,29.8,29.1,00.0,38.7,31.5,13.1,0000.0,0021.47,0006.80,0005.26
2021-12-03 21:21:00,,0827.6,5.01,0.00,29.8,29.1,00.0,38.7,31.5,13.1,0000.3,0021.33,0006.81,0005.30
2021-12-03 21:22:00,,0827.5,4.99,0.00,29.8,29.2,00.0,38.7,31.6,13.1,0003.3,0021.39,0006.75,0005.31
2021-12-03 21:23:00,,0827.5,5.00,0.00,29.9,29.2,00.0,38.7,31.7,13.0,0003.4,0021.24,0006.76,0005.31
2021-12-03 21:24:00,,0827.5,4.98,0.00,29.9,29.2,00.0,38.7,31.6,13.0,0003.2,0020.33,0006.72,0005.31
2021-12-03 21:25:00,,0827.6,5.00,0.00,29.9,29.2,00.0,38.7,31.6,13.0,0001.2,0020.62,0006.79,0005.32
2021-12-03 21:26:00,,0827.5,5.01,0.00,29.9,29.2,00.0,38.8,31.7,13.0,0000.0,0021.09,0006.83,0005.33
2021-12-03 21:27:00,,0827.5,5.02,0.00,29.9,29.2,00.0,38.8,31.7,13.0,0000.0,0020.81,0006.91,0005.34
2021-12-03 21:28:00,,0827.5,4.99,0.00,29.9,29.2,00.0,38.8,31.7,13.0,0000.0,0021.97,0006.93,0005.34
2021-12-03 21:29:00,,0827.5,4.99,0.00,29.9,29.3,00.0,38.8,31.7,13.0,0000.0,0021.44,0006.91,0005.34
2021-12-03 21:30:00,,0827.6,5.00,0.00,29.9,29.3,00.0,38.8,31.7,13.0,0000.0,0020.66,0006.93,0005.36
2021-12-03 21:31:00,,0827.7,5.02,0.00,30.0,29.4,00.0,38.8,31.7,13.0,0000.0,0020.36,0006.96,0005.35
2021-12-03 21:32:00,,0827.6,4.99,0.00,30.0,29.4,00.0,38.8,31.8,12.9,0000.0,0020.70,0006.97,0005.33
2021-12-03 21:33:00,,0827.6,4.99,0.00,30.0,29.5,00.0,38.9,31.8,12.9,0000.0,0020.46,0007.02,0005.32
2021-12-03 21:34:00,,0827.7,5.00,0.00,30.1,29.5,00.0,38.9,31.9,12.9,0000.0,0020.13,0007.05,0005.33
2021-12-03 21:35:00,,0827.7,5.01,0.00,30.1,29.6,00.0,38.9,31.9,12.9,0000.0,0020.50,0007.07,0005.32
2021-12-03 21:36:00,,0827.7,4.99,0.00,30.1,29.6,00.0,38.9,32.0,12.8,0000.0,0020.29,0006.96,0005.30
2021-12-03 21:37:00,,0827.7,5.01,0.00,30.2,29.6,00.0,39.0,32.0,12.8,0000.0,0019.88,0006.93,0005.31
2021-12-03 21:38:00,,0827.7,5.00,0.00,30.2,29.6,00.0,39.0,32.0,12.8,0000.0,0020.38,0006.92,0005.33
2021-12-03 21:39:00,,0827.6,4.99,0.00,30.2,29.6,00.0,39.0,32.0,12.8,0000.0,0019.52,0006.90,0005.34
2021-12-03 21:40:00,,0827.6,5.02,0.00,30.2,29.6,00.0,39.0,32.0,12.8,0000.0,0020.18,0006.94,0005.34
2021-12-03 21:41:00,,0827.7,5.00,0.00,30.2,29.6,00.0,39.0,32.0,12.7,0000.0,0020.10,0006.91,0005.34
2021-12-03 21:42:00,,0827.7,5.01,0.00,30.2,29.6,00.0,39.1,32.0,12.7,0000.0,0021.02,0006.99,0005.36
2021-12-03 21:43:00,,0827.7,4.99,0.00,30.2,29.6,00.0,39.1,32.0,12.7,0000.0,0021.35,0007.01,0005.40
2021-12-03 21:44:00,,0827.7,5.02,0.00,30.2,29.6,00.0,39.1,32.0,12.7,0000.0,0021.75,0007.01,0005.43
2021-12-03 21:45:00,,0827.7,5.00,0.00,30.2,29.6,00.0,39.1,32.0,12.7,0000.0,0022.48,0007.09,0005.44
2021-12-03 21:46:00,,0827.7,4.99,0.00,30.2,29.6,00.0,39.1,32.0,12.7,0000.0,0023.33,0007.16,0005.47
2021-12-03 21:47:00,,0827.7,5.00,0.00,30.2,29.5,00.0,39.1,32.0,12.7,0000.0,0023.51,0007.22,0005.50
2021-12-03 21:48:00,,0827.7,5.00,0.00,30.2,29.5,00.0,39.1,32.0,12.7,0000.0,0024.24,0007.30,0005.52
2021-12-03 21:49:00,,0827.7,5.01,0.00,30.2,29.5,00.0,39.1,32.0,12.7,0000.0,0024.46,0007.32,0005.56
2021-12-03 21:50:00,,0827.7,5.00,0.00,30.2,29.5,00.0,39.2,31.9,12.7,0000.0,0023.98,0007.36,0005.60
2021-12-03 21:51:00,,0827.7,5.00,0.00,30.2,29.4,00.0,39.2,31.9,12.7,0000.0,0022.88,0007.34,0005.64
2021-12-03 21:52:00,,0827.7,5.02,0.00,30.2,29.5,00.0,39.2,31.9,12.7,0000.0,0022.51,0007.33,0005.67
2021-12-03 21:53:00,,0827.7,4.99,0.00,30.2,29.5,00.0,39.2,31.9,12.7,0000.0,0021.36,0007.24,0005.67
2021-12-03 21:54:00,,0827.7,5.00,0.00,30.2,29.5,00.0,39.2,31.9,12.7,0000.0,0020.90,0007.22,0005.64
2021-12-03 21:55:00,,0827.7,5.01,0.00,30.2,29.5,00.0,39.2,32.0,12.7,0000.0,0020.01,0007.16,0005.61
2021-12-03 21:56:00,,0827.7,4.99,0.00,30.2,29.6,00.0,39.2,32.0,12.7,0000.0,0018.86,0007.05,0005.58
2021-12-03 21:57:00,,0827.7,5.00,0.00,30.3,29.6,00.0,39.2,32.0,12.7,0000.0,0017.37,0007.07,0005.55
2021-12-03 21:58:00,,0827.7,5.00,0.00,30.3,29.5,00.0,39.2,32.0,12.7,0000.0,0016.86,0006.98,0005.52
2021-12-03 21:59:00,,0827.7,5.00,0.00,30.3,29.5,00.0,39.2,32.0,12.7,0000.0,0016.98,0006.89,0005.46
